Temperature
4 4 4 4 4 3 4 5 7 7 6 6 5 4 3 3 2 2 1 1 1 1 1 1 1 1 1 1 1 2 2 1 1 1 1 2 2 2 2 3 3 3 3 3
3 3 3 3 4 4 4 4 5 5 5 5 3 3 2 2 2 1 1 1 1 1 1 1 1 1 1 1 1 1 1 1 1 1 1 1 1 2 2 2 2 3 3 3
5 3 3 5 4 3 3 3 4 5 5 4 3 2 2 2 1 1 1 1 0 0 0 0 0 0 1 1 1 1 1 0 0 1 1 1 1 1 1 2 2 2 2 2
3 3 5 6 3 3 3 3 3 3 3 3 2 2 1 1 1 1 0 0 0 0 -0 0 -0 -0 0 0 1 0 0 0 0 0 0 1 1 1 1 1 1 1 2 2
3 4 6 5 3 2 2 3 2 2 2 2 1 1 2 1 1 0 0 -0 -0 -0 -0 -0 -0 -0 -0 -0 0 0 -0 -0 -0 0 0 0 0 0 0 1 1 1 1 1
2 4 5 6 2 1 2 4 3 1 2 1 0 3 4 1 1 0 -0 -0 -1 -1 -1 -0 -0 -1 -1 -1 -1 -0 -0 -0 -0 -0 -0 -0 -0 -0 0 0 0 0 1 1
2 3 5 4 0 1 4 5 2 1 1 0 1 2 1 0 -0 -0 -0 -1 -1 -1 -1 -1 -1 -1 -1 -1 -1 -1 -1 -1 -1 -1 -1 -1 -1 -0 -0 0 0 0 0 1
2 3 4 1 0 2 4 2 1 1 0 -0 -0 -0 -1 -0 -0 -1 -1 -1 -1 -1 -1 -1 -1 -2 -1 -1 -1 -1 -1 -1 -1 -1 -1 -1 -1 -1 -1 -1 -0 -0 -0 -0
2 4 2 -0 1 1 1 1 1 1 0 -0 -1 -1 -1 -1 -1 -1 -1 -1 -2 -2 -2 -2 -2 -2 -2 -1 -2 -1 -1 -1 -1 -1 -1 -1 -1 -1 -1 -1 -1 -1 -1 -1
0 1 0 -1 0 1 1 0 1 0 0 -0 -1 -1 -1 -1 -1 -1 -1 -2 -2 -2 -2 -2 -2 -2 -2 -2 -2 -2 -2 -2 -2 -2 -2 -2 -2 -2 -2 -2 -2 -2 -2 -1
-0 1 -0 0 1 1 1 0 0 0 -0 -1 -1 -1 -1 -1 -2 -2 -2 -2 -2 -3 -3 -2 -2 -2 -2 -2 -2 -2 -2 -2 -2 -2 -2 -2 -2 -2 -2 -2 -2 -2 -2 -2
2 2 1 2 1 1 0 0 -0 -0 -1 -1 -1 -1 -2 -2 -2 -2 -2 -2 -3 -3 -3 -3 -3 -3 -2 -2 -3 -3 -3 -3 -3 -3 -3 -3 -3 -2 -2 -2 -3 -3 -3 -3
1 1 1 1 1 0 0 -0 -0 -1 -1 -1 -2 -2 -2 -2 -2 -2 -2 -3 -3 -3 -3 -3 -3 -3 -3 -3 -3 -3 -3 -3 -3 -3 -3 -3 -3 -3 -3 -3 -3 -3 -3 -3
0 0 -0 -0 0 -0 -0 -1 -1 -1 -1 -2 -2 -2 -2 -3 -3 -3 -3 -3 -3 -3 -3 -3 -3 -3 -3 -3 -3 -3 -3 -3 -3 -3 -3 -3 -4 -4 -4 -4 -4 -4 -4 -4
0 -0 -0 -0 -0 -1 -1 -1 -1 -2 -2 -2 -2 -2 -3 -3 -3 -3 -3 -3 -3 -3 -3 -4 -4 -4 -4 -4 -3 -3 -3 -4 -4 -4 -4 -4 -4 -4 -4 -4 -4 -4 -4 -4
-0 -0 -1 -1 -1 -1 -1 -1 -2 -2 -2 -2 -3 -3 -3 -3 -3 -3 -4 -4 -4 -4 -4 -4 -4 -4 -4 -4 -4 -4 -4 -4 -4 -4 -4 -4 -4 -4 -4 -4 -5 -5 -5 -4
-1 -1 -1 -1 -1 -1 -1 -2 -2 -2 -3 -3 -3 -3 -3 -3 -4 -4 -4 -4 -4 -4 -4 -4 -4 -4 -4 -4 -4 -4 -4 -4 -4 -4 -4 -4 -4 -4 -5 -5 -5 -5 -5 -5
-1 -1 -1 -1 -1 -2 -2 -2 -2 -2 -3 -3 -3 -4 -4 -4 -4 -4 -4 -4 -4 -4 -4 -4 -4 -4 -4 -4 -4 -5 -5 -5 -5 -5 -5 -5 -5 -5 -5 -5 -5 -5 -5 -5
-0 -1 -1 -1 -1 -2 -2 -2 -2 -3 -3 -3 -4 -4 -4 -4 -4 -4 -4 -4 -4 -4 -4 -4 -5 -5 -5 -5 -5 -5 -5 -5 -5 -5 -5 -5 -5 -5 -5 -5 -6 -6 -6 -6
-0 -1 -1 -1 -1 -2 -2 -2 -3 -3 -3 -4 -4 -4 -4 -4 -4 -4 -5 -5 -5 -5 -5 -5 -5 -5 -5 -5 -5 -5 -5 -5 -5 -5 -5 -5 -5 -5 -6 -6 -6 -6 -6 -6
-1 -1 -1 -1 -2 -2 -2 -3 -3 -3 -4 -4 -4 -4 -4 -4 -5 -5 -5 -5 -5 -5 -5 -5 -5 -5 -5 -5 -5 -5 -5 -5 -6 -6 -6 -6 -6 -6 -6 -6 -6 -6 -7 -7
-1 -1 -2 -2 -2 -2 -3 -3 -3 -4 -4 -4 -4 -4 -5 -5 -5 -5 -5 -5 -5 -5 -5 -5 -5 -5 -5 -5 -5 -5 -6 -6 -6 -6 -6 -6 -6 -6 -6 -6 -7 -7 -7 -7
-2 -2 -2 -2 -3 -3 -3 -3 -3 -4 -4 -4 -4 -5 -5 -5 -5 -5 -5 -5 -5 -5 -5 -5 -5 -5 -5 -6 -6 -6 -6 -6 -6 -6 -6 -6 -6 -6 -7 -7 -7 -7 -7 -7
-2 -2 -3 -3 -3 -3 -3 -3 -4 -4 -4 -4 -5 -5 -5 -5 -5 -5 -5 -5 -5 -6 -6 -6 -6 -6 -6 -6 -6 -6 -6 -6 -6 -6 -7 -7 -7 -7 -7 -7 -7 -7 -7 -7
-3 -3 -3 -3 -3 -3 -4 -4 -4 -4 -4 -5 -5 -5 -5 -5 -5 -5 -6 -6 -6 -6 -6 -6 -6 -6 -6 -6 -6 -6 -6 -7 -7 -7 -7 -7 -7 -7 -7 -7 -7 -7 -7 -7
-3 -3 -3 -3 -4 -4 -4 -4 -4 -4 -5 -5 -5 -5 -5 -6 -6 -6 -6 -6 -6 -6 -6 -6 -6 -6 -6 -6 -7 -7 -7 -7 -7 -7 -7 -7 -7 -7 -7 -7 -7 -8 -8 -8
-3 -4 -4 -4 -4 -4 -4 -4 -4 -5 -5 -5 -5 -5 -6 -6 -6 -6 -6 -6 -6 -6 -6 -6 -6 -6 -7 -7 -7 -7 -7 -7 -7 -7 -7 -7 -7 -7 -7 -8 -8 -8 -8 -8
Wind_Speed
6 5 4 6 8 9 10 9 8 8 8 9 6 5 5 5 5 5 5 6 6 6 6 6 6 6 6 6 7 6 6 6 6 7 7 6 6 6 6 6 7 7 7 7
4 4 5 7 10 11 12 11 12 12 12 7 5 4 5 5 4 5 6 6 7 7 7 7 7 7 7 7 7 6 6 7 7 6 6 6 6 6 6 6 6 6 6 6
4 2 3 7 9 11 8 8 9 10 8 4 5 6 6 5 5 6 7 7 7 7 7 7 7 7 8 8 7 6 6 6 7 6 6 6 6 6 6 6 6 5 5 5
2 2 6 3 1 6 8 8 8 7 6 5 6 6 6 5 5 6 7 7 7 7 7 7 7 7 8 8 7 6 6 6 6 6 6 6 6 6 5 5 5 5 5 5
3 4 7 4 2 4 5 5 7 8 8 6 4 5 4 3 4 6 7 6 6 7 7 7 7 7 7 7 7 6 6 6 6 6 6 6 6 5 5 5 5 5 4 4
3 4 6 2 2 2 3 4 4 6 7 4 2 4 4 2 4 6 6 5 5 6 6 7 7 7 7 7 6 7 7 6 6 6 6 6 6 5 4 4 4 4 4 3
6 6 7 0 3 5 4 2 1 4 5 5 5 5 4 4 5 5 5 5 5 5 6 6 7 6 7 7 7 7 6 6 6 6 6 5 5 4 4 3 3 3 2 2
6 6 6 4 6 6 3 1 1 2 4 5 6 5 4 5 5 5 5 5 5 5 6 6 6 6 7 7 7 6 6 6 6 5 5 4 4 3 2 1 1 2 2 1
8 6 1 6 5 3 1 2 2 3 4 5 5 6 6 6 5 5 5 5 5 5 6 6 6 6 7 8 7 6 5 5 5 5 4 3 2 2 1 1 1 1 1 1
5 8 5 6 6 5 4 5 5 5 5 5 6 7 6 6 5 5 5 5 5 5 6 7 7 7 7 7 6 5 5 5 4 4 3 3 2 2 1 1 1 2 2 1
6 6 5 6 7 7 5 5 5 5 5 6 6 7 6 6 6 6 5 5 5 5 6 7 7 7 7 6 5 5 5 4 4 3 3 2 2 2 1 1 1 2 2 2
6 5 5 4 3 4 4 5 6 5 6 6 6 7 6 6 6 5 5 5 5 5 6 7 7 7 7 6 5 4 4 4 3 2 2 2 1 2 2 1 1 1 1 0
5 3 3 3 3 3 4 5 5 5 6 6 5 6 6 6 5 5 5 5 6 6 6 6 7 7 7 6 5 4 3 3 3 2 2 2 1 0 1 1 2 2 2 2
6 3 4 5 4 3 3 3 3 3 4 4 4 4 4 5 5 5 5 6 6 6 6 6 6 7 6 5 4 4 4 3 3 2 2 1 1 1 1 1 1 1 1 2
7 7 6 4 3 3 2 2 2 3 4 4 3 3 4 4 5 5 5 5 5 5 5 6 6 7 6 4 4 4 3 2 2 2 1 1 1 0 0 0 0 0 1 1
5 5 6 6 6 5 4 4 4 5 4 4 4 4 4 5 5 5 5 4 4 5 5 6 6 6 5 4 4 3 3 3 2 1 1 1 0 1 1 1 0 0 0 0
5 6 6 6 7 6 6 6 6 6 5 5 5 4 4 4 4 4 5 4 5 5 5 6 6 5 4 3 3 2 2 2 2 2 1 1 1 1 1 1 1 0 0 0
8 8 7 6 7 7 7 6 6 6 6 5 4 4 4 4 4 5 5 4 4 5 5 5 5 4 3 3 3 2 2 2 1 1 1 1 1 0 0 1 1 0 0 1
7 8 7 7 7 6 6 6 6 5 5 4 4 4 4 4 4 4 3 3 4 5 5 5 5 4 3 3 2 2 1 1 1 1 1 1 0 0 1 1 1 1 1 0
6 6 6 6 5 6 6 5 5 4 4 4 4 4 4 4 3 3 3 4 4 4 4 4 3 3 3 2 2 1 1 1 1 1 0 0 0 0 1 1 1 1 1 1
6 5 5 5 5 5 5 5 5 5 4 4 5 5 4 4 3 3 3 4 4 4 4 3 2 2 2 1 1 1 1 1 1 1 1 1 0 0 0 0 0 1 1 1
5 4 5 4 4 4 4 4 4 4 4 4 4 4 4 4 4 3 4 4 4 3 2 2 2 2 1 1 1 1 1 1 1 1 1 1 1 1 1 1 1 1 1 1
4 4 5 5 5 3 3 4 4 4 5 5 5 5 5 4 3 3 4 3 3 3 2 2 2 1 1 1 1 1 1 1 1 1 1 1 1 1 1 1 1 1 1 1
4 4 4 3 3 3 4 4 3 3 4 4 4 5 4 4 4 4 3 3 3 3 2 2 2 1 1 1 1 1 1 1 1 1 1 1 1 1 1 1 1 1 1 1
3 3 3 4 4 4 4 3 2 3 3 3 4 4 4 4 4 3 2 2 3 2 2 2 2 1 1 1 1 1 1 1 1 1 1 1 1 1 1 1 1 1 1 1
3 4 4 4 4 4 3 3 3 3 3 3 3 3 3 3 3 2 2 2 2 2 2 1 1 1 1 1 1 1 1 1 1 1 1 1 1 1 1 1 1 1 1 1
3 3 2 3 3 3 4 4 4 4 4 4 3 3 3 3 2 2 2 2 2 2 1 1 1 1 1 1 1 1 1 1 1 1 1 1 1 1 1 1 1 1 1 1
Wind_Direction
267 272 242 238 229 214 219 229 237 252 260 274 282 274 278 287 297 304 312 317 318 317 315 311 306 305 306 307 306 304 301 295 287 283 278 274 273 272 272 268 265 264 264 267
261 257 250 256 247 231 232 238 244 261 272 280 293 288 281 282 284 291 300 306 309 312 312 311 308 307 307 305 306 303 298 294 293 288 284 280 279 276 272 268 266 264 262 264
253 277 274 258 239 218 214 218 222 239 251 271 282 275 273 272 274 282 293 299 304 306 305 307 306 306 304 302 302 297 293 292 292 290 286 283 281 276 272 268 267 266 268 270
260 264 242 259 126 204 211 231 225 240 256 255 267 284 278 263 266 280 290 295 300 304 307 308 308 307 304 302 297 291 289 291 294 290 285 281 278 274 274 272 267 264 266 267
211 247 269 266 212 189 201 243 222 230 249 265 293 294 267 249 267 278 284 287 292 298 302 304 304 305 303 302 299 293 290 291 290 287 283 281 276 276 274 273 271 265 262 262
206 231 245 257 145 166 179 254 215 216 234 247 251 275 287 302 289 288 290 290 296 302 304 304 306 306 301 299 298 293 292 292 290 286 278 276 273 270 269 266 268 273 270 261
220 238 261 273 144 161 202 268 165 215 227 217 227 261 301 302 292 289 290 292 298 299 299 302 306 303 298 298 298 295 295 296 293 289 283 278 275 270 267 268 273 277 278 275
198 222 246 149 154 195 249 32 198 241 242 243 255 276 290 288 288 289 290 292 296 297 299 304 306 302 299 300 303 303 298 298 296 294 291 284 279 280 280 272 260 274 286 299
206 224 310 175 204 234 246 236 261 273 274 262 264 270 282 287 287 286 286 289 293 294 300 306 307 302 297 303 309 308 303 300 300 297 293 292 283 274 265 256 240 240 250 257
242 254 250 235 245 253 253 256 270 274 273 262 261 267 273 280 284 286 287 287 292 295 299 305 309 304 298 305 309 304 303 308 308 305 308 308 296 281 256 233 228 233 239 244
246 264 275 253 239 245 254 261 272 277 269 259 258 265 267 273 278 281 284 286 287 288 293 300 307 307 307 308 306 301 304 308 311 313 308 306 309 306 271 249 242 243 244 235
235 229 223 250 234 231 239 250 253 261 268 265 257 261 268 272 276 278 281 286 289 290 294 300 305 306 308 307 302 299 306 308 307 308 306 307 317 340 12 15 15 342 351 321
252 264 254 273 263 252 250 261 260 253 255 264 264 260 264 273 278 280 284 287 288 291 294 299 303 304 305 304 298 291 292 297 299 298 299 298 287 276 7 28 41 54 74 70
238 237 255 255 260 257 260 267 269 270 270 268 269 270 269 273 280 282 285 288 292 295 298 300 302 302 304 301 295 291 289 292 294 292 297 288 270 252 214 164 104 46 45 71
228 227 236 253 262 259 258 259 264 273 281 282 279 273 267 268 273 280 288 294 295 296 297 300 300 302 308 301 295 293 293 294 290 293 301 292 272 252 179 166 148 71 36 59
221 226 232 243 252 257 250 245 250 260 265 268 269 269 268 270 275 281 286 287 289 291 294 295 295 302 305 297 290 288 289 302 309 297 295 291 233 188 184 181 185 177 188 352
208 230 234 241 245 248 245 243 245 252 255 256 260 266 266 270 277 284 288 285 281 285 290 290 295 302 298 289 280 281 285 285 293 297 291 276 245 208 208 199 196 209 294 83
229 236 232 236 240 245 248 247 244 244 244 247 251 251 251 254 266 278 286 291 292 296 296 296 298 297 294 289 280 279 276 278 269 269 272 266 256 237 213 201 196 193 76 94
234 238 240 241 240 239 241 242 242 241 240 235 232 239 247 254 262 272 282 287 290 294 301 299 298 295 292 291 290 271 267 268 269 277 277 263 250 222 210 213 210 199 185 173
241 242 241 241 237 232 234 237 236 237 234 226 227 239 250 256 259 264 269 270 272 282 296 295 287 287 288 286 282 266 270 272 267 263 258 224 213 225 225 213 201 199 200 201
241 238 233 232 234 234 230 226 222 226 227 219 222 234 247 261 259 256 262 277 287 289 289 285 279 283 282 281 252 250 248 253 252 246 237 234 221 209 217 212 212 215 214 212
243 236 233 227 224 234 231 220 217 219 220 223 227 231 240 252 255 255 251 262 288 292 288 277 275 279 273 235 223 228 225 225 238 249 249 251 240 231 228 223 221 227 224 222
245 236 232 227 224 229 230 219 212 213 219 223 224 227 234 243 245 249 265 266 276 274 270 272 287 284 209 176 201 210 209 213 231 243 250 253 254 252 248 241 236 229 232 232
242 237 232 223 201 207 224 229 217 219 226 236 234 229 232 240 248 246 259 267 267 265 258 276 277 236 189 190 197 210 222 232 240 244 247 250 252 251 248 244 243 242 237 239
235 231 219 206 210 219 223 217 216 225 228 239 246 241 235 236 239 248 247 245 248 249 254 257 250 219 200 208 208 215 227 239 242 242 243 244 243 240 242 244 247 253 245 236
233 233 231 227 226 222 210 207 219 225 224 234 245 241 233 231 236 238 236 236 235 232 235 239 227 206 205 209 215 220 224 236 238 236 242 246 249 248 252 257 260 257 255 251
236 235 231 236 229 215 211 213 218 223 222 226 242 240 226 219 219 220 223 226 226 225 222 216 205 202 202 204 205 209 216 224 227 231 235 242 250 253 258 255 257 258 260 256
Height
1496 1496 1496 1494 1494 1496 1494 1487 1482 1476 1477 1475 1479 1481 1482 1481 1480 1479 1478 1476 1474 1472 1470 1468 1466 1464 1462 1460 1458 1457 1455 1454 1452 1451 1451 1450 1449 1449 1448 1448 1448 1447 1448 1447
1496 1495 1495 1493 1490 1491 1490 1487 1483 1481 1478 1477 1480 1480 1480 1480 1478 1477 1475 1474 1472 1470 1467 1464 1462 1460 1458 1456 1454 1452 1451 1449 1448 1447 1446 1445 1444 1443 1443 1442 1442 1442 1442 1442
1488 1494 1492 1482 1480 1483 1483 1482 1480 1476 1475 1477 1478 1478 1477 1477 1476 1474 1473 1471 1469 1466 1464 1462 1459 1457 1455 1453 1450 1449 1447 1446 1444 1443 1441 1440 1439 1438 1438 1437 1437 1437 1437 1436
1491 1492 1484 1471 1478 1478 1478 1478 1479 1477 1475 1476 1476 1475 1474 1474 1473 1472 1470 1468 1466 1464 1461 1459 1456 1454 1451 1449 1447 1445 1443 1442 1440 1439 1437 1436 1435 1434 1433 1433 1433 1432 1432 1432
1491 1483 1471 1471 1476 1477 1477 1474 1474 1474 1474 1474 1475 1473 1471 1471 1470 1469 1467 1466 1464 1462 1459 1456 1454 1451 1449 1446 1444 1442 1440 1438 1436 1435 1434 1432 1431 1430 1429 1429 1429 1428 1428 1428
1490 1481 1471 1465 1474 1476 1477 1470 1469 1470 1471 1472 1473 1470 1467 1468 1467 1466 1464 1463 1461 1458 1456 1453 1451 1449 1446 1443 1441 1439 1437 1434 1433 1431 1430 1429 1427 1426 1426 1425 1425 1425 1424 1424
1486 1480 1467 1470 1474 1476 1472 1465 1468 1468 1468 1469 1470 1468 1467 1465 1464 1463 1462 1460 1458 1455 1453 1450 1448 1446 1443 1441 1438 1436 1434 1431 1430 1428 1427 1425 1424 1423 1422 1422 1422 1422 1421 1421
1484 1480 1469 1472 1473 1471 1466 1466 1466 1466 1466 1466 1466 1465 1464 1463 1461 1460 1458 1457 1455 1452 1450 1448 1445 1443 1440 1437 1435 1433 1430 1428 1427 1425 1424 1422 1421 1420 1419 1419 1418 1418 1418 1418
1472 1467 1466 1467 1466 1465 1465 1465 1465 1464 1464 1463 1463 1462 1461 1460 1458 1457 1456 1454 1452 1450 1447 1445 1442 1440 1437 1435 1432 1430 1428 1426 1424 1423 1421 1420 1418 1417 1417 1416 1416 1416 1416 1416
1471 1464 1464 1464 1463 1463 1463 1463 1463 1462 1462 1461 1460 1459 1458 1457 1456 1454 1453 1451 1449 1447 1445 1442 1440 1438 1435 1433 1430 1428 1426 1424 1422 1420 1418 1417 1417 1415 1414 1414 1414 1414 1414 1414
1466 1462 1461 1459 1459 1460 1460 1460 1460 1460 1459 1458 1457 1456 1455 1454 1453 1452 1450 1448 1446 1444 1442 1440 1437 1435 1433 1430 1428 1426 1423 1421 1420 1418 1417 1415 1414 1413 1412 1412 1412 1412 1412 1413
1456 1456 1457 1456 1456 1457 1457 1457 1457 1456 1456 1455 1454 1453 1452 1451 1450 1449 1447 1445 1443 1441 1439 1437 1434 1432 1430 1428 1426 1424 1421 1420 1418 1416 1415 1413 1412 1411 1410 1410 1410 1411 1411 1412
1454 1454 1454 1453 1454 1454 1454 1454 1453 1453 1452 1452 1451 1450 1449 1448 1447 1445 1444 1442 1440 1438 1436 1434 1432 1430 1428 1426 1424 1422 1420 1418 1417 1415 1413 1412 1411 1410 1409 1409 1409 1409 1410 1410
1451 1451 1451 1450 1451 1451 1451 1451 1450 1450 1449 1448 1447 1446 1445 1444 1443 1442 1441 1439 1437 1435 1433 1431 1429 1427 1425 1423 1421 1419 1418 1416 1415 1413 1412 1410 1410 1409 1408 1407 1407 1407 1408 1408
1447 1448 1447 1447 1447 1448 1447 1447 1447 1446 1445 1445 1444 1443 1442 1441 1440 1439 1438 1436 1434 1432 1430 1428 1426 1424 1423 1421 1419 1417 1415 1414 1413 1411 1410 1409 1408 1407 1407 1407 1406 1406 1407 1407
1443 1443 1443 1443 1443 1443 1443 1443 1443 1442 1442 1441 1440 1440 1439 1438 1437 1436 1434 1433 1431 1428 1427 1425 1423 1422 1420 1418 1416 1415 1414 1412 1411 1410 1409 1408 1407 1406 1406 1406 1406 1406 1406 1406
1439 1438 1439 1439 1439 1439 1439 1439 1439 1438 1438 1437 1437 1437 1436 1435 1434 1432 1431 1430 1428 1426 1424 1422 1421 1419 1417 1416 1414 1413 1412 1411 1409 1408 1407 1406 1406 1405 1405 1405 1405 1405 1405 1405
1434 1434 1434 1435 1434 1434 1434 1435 1434 1434 1434 1434 1434 1433 1432 1431 1430 1429 1428 1426 1425 1423 1421 1420 1418 1417 1415 1414 1413 1411 1410 1409 1408 1407 1406 1406 1405 1405 1405 1404 1404 1404 1404 1405
1429 1429 1430 1430 1430 1430 1430 1430 1430 1430 1430 1430 1430 1429 1429 1428 1427 1426 1425 1423 1421 1420 1419 1417 1416 1415 1413 1412 1411 1410 1409 1408 1407 1406 1405 1405 1404 1404 1404 1403 1403 1403 1403 1404
1425 1425 1425 1426 1426 1426 1426 1426 1426 1427 1427 1427 1426 1426 1425 1425 1424 1423 1422 1420 1419 1417 1416 1415 1414 1412 1411 1410 1409 1408 1408 1407 1406 1405 1404 1404 1403 1403 1403 1403 1402 1402 1402 1402
1421 1421 1421 1421 1422 1422 1422 1422 1423 1423 1423 1423 1423 1422 1422 1421 1421 1420 1418 1417 1416 1415 1414 1413 1412 1410 1410 1409 1408 1407 1406 1406 1405 1404 1403 1403 1403 1402 1402 1401 1401 1401 1401 1401
1417 1417 1417 1417 1418 1418 1419 1419 1419 1419 1420 1420 1420 1419 1419 1418 1417 1416 1415 1415 1413 1412 1411 1410 1410 1409 1408 1407 1407 1406 1405 1405 1404 1403 1403 1402 1402 1401 1401 1401 1400 1400 1400 1400
1414 1414 1414 1414 1414 1414 1415 1416 1416 1416 1416 1416 1416 1416 1415 1415 1414 1413 1412 1412 1411 1410 1409 1408 1407 1407 1406 1406 1405 1404 1404 1404 1403 1403 1402 1402 1401 1401 1400 1400 1399 1399 1399 1399
1410 1411 1411 1411 1411 1411 1411 1412 1413 1413 1413 1413 1413 1412 1412 1411 1410 1410 1409 1409 1408 1407 1407 1406 1405 1405 1404 1404 1403 1403 1403 1402 1402 1402 1401 1401 1400 1400 1399 1399 1398 1398 1398 1398
1407 1407 1407 1407 1407 1408 1408 1409 1409 1409 1409 1409 1409 1409 1408 1408 1407 1407 1406 1406 1405 1405 1404 1404 1403 1403 1402 1402 1402 1401 1401 1401 1401 1400 1400 1399 1399 1398 1398 1398 1397 1397 1397 1397
1404 1404 1404 1404 1404 1404 1405 1405 1405 1405 1405 1405 1405 1405 1405 1404 1404 1404 1403 1403 1403 1403 1402 1402 1401 1401 1401 1400 1400 1400 1400 1399 1399 1399 1398 1398 1397 1397 1397 1396 1396 1396 1395 1395
1400 1400 1400 1400 1400 1401 1401 1401 1401 1402 1402 1402 1402 1401 1401 1401 1401 1401 1401 1400 1400 1400 1400 1400 1399 1399 1399 1399 1398 1398 1398 1398 1397 1397 1397 1396 1396 1396 1395 1395 1395 1394 1394 1394